[[{"header":{"parameterUnit":"m.s-1","parameterCategory":1,"la1":30.2992,"la2":30.254,"lo1":-89.0895,"lo2":-89.0443,"dy":0.0025,"dx":0.0025,"nx":19,"ny":19,"refTime":"2026-05-18T03:00:00:Z","depth":0,"parameterNumber":2,"parameterNumberName":"U-component_of_WINDS"},"data":[0,0,0,-2.8712,-2.8712,-2.8746,-2.8746,-2.8794,-2.8795,0,0,0,0,0,0,0,0,0,0,0,-2.8704,-2.8704,-2.8711,-2.8712,-2.8746,-2.8746,-2.8794,-2.8795,0,0,0,0,0,0,0,0,0,0,0,-2.8704,-2.8704,-2.8705,-2.8713,-2.8746,-2.8746,-2.8794,-2.8767,0,0,0,0,0,0,0,0,0,0,-2.8734,-2.8728,-2.8704,-2.8705,-2.8713,-2.8746,-2.8746,-2.8766,-2.8769,-2.8781,0,-2.8792,0,-2.8794,-2.8798,-2.8798,0,0,0,-2.8711,-2.8726,-2.8733,-2.8705,-2.8713,-2.8746,-2.873,-2.8767,-2.8771,-2.8785,-2.8793,-2.8794,-2.8795,-2.8799,-2.8799,-2.8875,-2.8875,0,0,-2.8709,-2.8711,-2.8731,-2.8735,-2.873,-2.8729,-2.8731,-2.8769,-2.8778,-2.8793,-2.8795,-2.8796,-2.8799,-2.8799,-2.8874,-2.8875,0,0,0,-2.8705,-2.871,-2.8716,-2.8733,-2.8739,-2.873,-2.8733,-2.8776,-2.8778,-2.8796,-2.8796,-2.8799,-2.88,-2.8874,-2.8875,-2.8897,0,0,0,-2.8703,-2.8707,-2.8715,-2.8717,-2.8739,-2.8758,-2.8739,-2.8775,-2.8779,-2.8796,-2.8799,-2.88,-2.8873,-2.8874,-2.8895,-2.8907,0,0,0,-2.8701,-2.8707,-2.8713,-2.8717,-2.8732,-2.8757,-2.8761,-2.8776,-2.878,-2.8798,-2.8801,-2.8873,-2.8874,-2.8894,-2.8904,-2.8927,0,0,0,-2.8699,-2.8733,-2.8713,-2.8752,-2.8731,-2.8771,-2.8761,-2.8791,-2.8809,-2.88,-2.8873,-2.8874,-2.8893,-2.8903,-2.8925,-2.8945,-2.8953,0,0,-2.8743,-2.8738,-2.876,-2.8744,-2.8788,-2.8766,-2.8814,-2.8829,-2.8829,-2.886,-2.8862,-2.8896,-2.8904,-2.8926,-2.9005,-2.9012,0,0,0,-2.8775,-2.8791,-2.8802,-2.882,-2.8833,-2.8845,-2.8853,-2.8859,-2.8885,-2.8845,-2.8911,-2.8916,-2.8929,-2.8938,-2.8944,-2.8954,-2.8879,-2.8879,-2.8879,-2.8838,-2.8837,-2.8874,-2.8877,-2.8895,-2.8904,-2.8918,-2.8928,-2.8921,-2.8937,-2.8945,-2.8993,-2.9004,-2.9008,-2.9019,-2.8957,-2.8957,-2.8957,-2.8958,-2.8901,-2.8923,-2.8915,-2.8947,-2.8947,-2.8974,-2.8985,-2.898,-2.9006,-2.8986,-2.8998,-2.8975,-2.9016,-2.9026,-2.8959,-2.8959,-2.8959,-2.8959,-2.8958,-2.8941,-2.8951,-2.8959,-2.8985,-2.9007,-2.901,-2.9035,-2.9034,-2.9033,-2.9044,-2.9052,-2.9052,-2.905,-2.9049,-2.9049,-2.9049,-2.9049,-2.9049,-2.9049,-2.8978,-2.8986,-2.9007,-2.9025,-2.9037,-2.9053,-2.9064,-2.9076,-2.9089,-2.9086,-2.9086,-2.9077,-2.9021,-2.9006,-2.9052,-2.9052,-2.9051,-2.9051,-2.9051,-2.9039,-2.9026,-2.9058,-2.907,-2.9092,-2.9113,-2.9112,-2.9137,-2.9147,-2.916,-2.9151,-2.9109,-2.9104,-2.9099,-2.9087,-2.9151,-2.9151,-2.9151,-2.9151,-2.9071,-2.907,-2.9103,-2.9123,-2.9142,-2.9145,-2.9183,-2.9193,-2.9201,-2.9207,-2.9198,-2.9182,-2.9177,-2.9175,-2.9168,-2.9156,-2.9237,-2.9237,-2.9237,-2.9108,-2.9109,-2.914,-2.9147,-2.9165,-2.918,-2.9216,-2.9239,-2.9246,-2.9241,-2.9212,-2.9208,-2.9182,-2.9174,-2.9165,-2.9155,-2.9133,0,0]},{"header":{"parameterUnit":"m.s-1","parameterCategory":1,"la1":30.2992,"la2":30.254,"lo1":-89.0895,"lo2":-89.0443,"dy":0.0025,"dx":0.0025,"nx":19,"ny":19,"refTime":"2026-05-18T03:00:00:Z","depth":0,"parameterNumber":3,"parameterNumberName":"V-component_of_WINDS"},"data":[0,0,0,4.7992,4.7991,4.7939,4.7939,4.7888,4.7888,0,0,0,0,0,0,0,0,0,0,0,4.8019,4.8019,4.7992,4.7991,4.7939,4.7939,4.7888,4.7888,0,0,0,0,0,0,0,0,0,0,0,4.8019,4.8019,4.8019,4.7991,4.794,4.7939,4.7888,4.7921,0,0,0,0,0,0,0,0,0,0,4.7968,4.8005,4.8019,4.8019,4.799,4.794,4.7939,4.7922,4.7919,4.7919,0,4.7924,0,4.7906,4.7886,4.7886,0,0,0,4.7981,4.8008,4.7984,4.8019,4.799,4.794,4.796,4.792,4.7917,4.7914,4.7923,4.7921,4.7905,4.7886,4.7885,4.7923,4.7924,0,0,4.7984,4.8015,4.7987,4.7982,4.7995,4.7962,4.7958,4.7918,4.7928,4.7923,4.7919,4.7904,4.7885,4.7885,4.7922,4.7923,0,0,0,4.7999,4.8017,4.7994,4.7985,4.7975,4.796,4.7957,4.793,4.792,4.7919,4.7903,4.7885,4.7885,4.7922,4.7923,4.7985,0,0,0,4.8,4.8026,4.7996,4.8014,4.7976,4.7952,4.797,4.7923,4.7917,4.7904,4.7885,4.7884,4.7921,4.7922,4.7982,4.8009,0,0,0,4.8018,4.8028,4.8025,4.8016,4.7995,4.7952,4.794,4.7921,4.7908,4.7886,4.7884,4.792,4.7922,4.7979,4.8004,4.8028,0,0,0,4.8045,4.808,4.8026,4.8059,4.7996,4.7993,4.7939,4.7935,4.7923,4.7885,4.7921,4.7923,4.7978,4.8001,4.8025,4.8054,4.8069,0,0,4.8106,4.8088,4.8104,4.8055,4.807,4.7998,4.802,4.7978,4.7946,4.7932,4.7932,4.7983,4.8004,4.8027,4.8144,4.8156,0,0,0,4.8134,4.8146,4.8143,4.8135,4.8106,4.8082,4.8034,4.8018,4.8005,4.7946,4.7997,4.8009,4.8021,4.8033,4.8044,4.8052,4.793,4.793,4.7929,4.8263,4.8223,4.8247,4.8201,4.8193,4.8144,4.8133,4.8103,4.8062,4.8075,4.807,4.8146,4.8162,4.817,4.8179,4.8082,4.8083,4.8083,4.8083,4.8348,4.8359,4.8306,4.8311,4.8267,4.8269,4.8223,4.8194,4.8188,4.8146,4.8155,4.8113,4.8185,4.819,4.8087,4.8087,4.8086,4.8086,4.8085,4.8428,4.8426,4.8408,4.8392,4.8384,4.8334,4.8333,4.8292,4.8253,4.8262,4.8252,4.8251,4.8244,4.826,4.8261,4.8261,4.8261,4.8261,4.8261,4.8517,4.8496,4.85,4.8473,4.8463,4.8443,4.8395,4.8382,4.8357,4.8327,4.8327,4.8285,4.82,4.8179,4.8265,4.8265,4.8264,4.8264,4.8263,4.8617,4.8589,4.8596,4.8586,4.855,4.8545,4.8493,4.8471,4.8455,4.8455,4.841,4.8355,4.8333,4.8324,4.8306,4.842,4.842,4.842,4.842,4.8684,4.867,4.8669,4.8655,4.8637,4.8592,4.8599,4.8561,4.8516,4.8503,4.8481,4.8454,4.8447,4.8429,4.8418,4.8401,4.8536,4.8536,4.8536,4.8743,4.8726,4.8741,4.87,4.867,4.8643,4.8649,4.8633,4.8576,4.854,4.8491,4.8487,4.8443,4.8431,4.8394,4.8378,4.8346,0,0]}]]